| time (UTC) | temp C | wind direction | speed KPH | gust KPH | rain 1hr cm | rain 24hr cm | rain mn cm | humidity % | barometer mb |
| 20260507083020 | 20 | 34 | 12.9 | 0.0 | 0.00 | 0.00 | 0.00 | 63 | 1013.5 |
| 20260507082520 | 20 | 317 | 6.4 | 0.0 | 0.00 | 0.00 | 0.00 | 64 | 1013.4 |
| 20260507082020 | 20 | 9 | 0.0 | 0.0 | 0.00 | 0.00 | 0.00 | 65 | 1013.3 |
| 20260507081519 | 20 | 331 | 0.0 | 0.0 | 0.00 | 0.00 | 0.00 | 64 | 1013.2 |
| 20260507081018 | 21 | 319 | 14.5 | 0.0 | 0.00 | 0.00 | 0.00 | 59 | 1013.2 |
| 20260507080518 | 21 | 266 | 0.0 | 0.0 | 0.00 | 0.00 | 0.00 | 55 | 1013.1 |
| 20260507080017 | 20 | 242 | 0.0 | 0.0 | 0.00 | 0.00 | 0.00 | 55 | 1013.1 |
| 20260507075517 | 20 | 230 | 0.0 | 0.0 | 0.00 | 0.00 | 0.00 | 56 | 1013.1 |
| 20260507075017 | 20 | 243 | 0.0 | 0.0 | 0.00 | 0.00 | 0.00 | 58 | 1013.1 |
| 20260507074517 | 20 | 235 | 0.0 | 0.0 | 0.00 | 0.00 | 0.00 | 59 | 1013.1 |
| 20260507074016 | 20 | 228 | 0.0 | 0.0 | 0.00 | 0.00 | 0.00 | 60 | 1013.1 |
| 20260507073516 | 20 | 229 | 0.0 | 0.0 | 0.00 | 0.00 | 0.00 | 61 | 1013.1 |
| 20260507073016 | 19 | 179 | 0.0 | 0.0 | 0.00 | 0.00 | 0.00 | 61 | 1013.2 |
| 20260507072516 | 19 | 182 | 0.0 | 0.0 | 0.00 | 0.00 | 0.00 | 62 | 1013.1 |
| 20260507072016 | 19 | 180 | 0.0 | 0.0 | 0.00 | 0.00 | 0.00 | 63 | 1013.1 |
| 20260507071515 | 19 | 75 | 0.0 | 0.0 | 0.00 | 0.00 | 0.00 | 64 | 1013.2 |
| 20260507071015 | 19 | 60 | 0.0 | 0.0 | 0.00 | 0.00 | 0.00 | 66 | 1013.2 |
| 20260507070515 | 19 | 60 | 0.0 | 0.0 | 0.00 | 0.00 | 0.00 | 66 | 1013.2 |
| 20260507070015 | 19 | 60 | 0.0 | 0.0 | 0.00 | 0.00 | 0.00 | 67 | 1013.2 |
| 20260507065514 | 18 | 54 | 0.0 | 0.0 | 0.00 | 0.00 | 0.00 | 69 | 1013.1 |
| 20260507065014 | 19 | 54 | 0.0 | 0.0 | 0.00 | 0.00 | 0.00 | 70 | 1013.1 |
| 20260507064514 | 18 | 54 | 0.0 | 0.0 | 0.00 | 0.00 | 0.00 | 71 | 1013.1 |
| 20260507064014 | 18 | 54 | 0.0 | 0.0 | 0.00 | 0.00 | 0.00 | 72 | 1013.1 |
| 20260507063513 | 18 | 54 | 0.0 | 0.0 | 0.00 | 0.00 | 0.00 | 73 | 1013.2 |
| 20260507063013 | 18 | 54 | 0.0 | 0.0 | 0.00 | 0.00 | 0.00 | 74 | 1013.2 |
| 20260507062513 | 18 | 45 | 0.0 | 0.0 | 0.00 | 0.00 | 0.00 | 75 | 1013.1 |
| 20260507062013 | 17 | 43 | 0.0 | 0.0 | 0.00 | 0.00 | 0.00 | 75 | 1013.1 |
| 20260507061513 | 17 | 42 | 0.0 | 0.0 | 0.00 | 0.00 | 0.00 | 75 | 1013.1 |
| 20260507061012 | 17 | 40 | 0.0 | 0.0 | 0.00 | 0.00 | 0.00 | 75 | 1013.1 |
| 20260507060512 | 17 | 40 | 0.0 | 0.0 | 0.00 | 0.00 | 0.00 | 75 | 1013.1 |
| 20260507060012 | 17 | 354 | 0.0 | 0.0 | 0.00 | 0.00 | 0.00 | 75 | 1013.1 |
| 20260507055512 | 16 | 354 | 0.0 | 0.0 | 0.00 | 0.00 | 0.00 | 74 | 1013.0 |
| 20260507055011 | 16 | 338 | 0.0 | 0.0 | 0.00 | 0.00 | 0.00 | 75 | 1013.0 |
| 20260507054511 | 16 | 156 | 0.0 | 0.0 | 0.00 | 0.00 | 0.00 | 75 | 1012.8 |
| 20260507054011 | 16 | 152 | 0.0 | 0.0 | 0.00 | 0.00 | 0.00 | 75 | 1012.8 |
| 20260507053511 | 16 | 131 | 0.0 | 0.0 | 0.00 | 0.00 | 0.00 | 75 | 1012.7 |
| 20260507053011 | 16 | 129 | 0.0 | 0.0 | 0.00 | 0.00 | 0.00 | 75 | 1012.7 |
| 20260507052510 | 16 | 129 | 0.0 | 0.0 | 0.00 | 0.00 | 0.00 | 75 | 1012.7 |
| 20260507052010 | 16 | 129 | 0.0 | 0.0 | 0.00 | 0.00 | 0.00 | 75 | 1012.6 |
| 20260507051510 | 16 | 129 | 0.0 | 0.0 | 0.00 | 0.00 | 0.00 | 75 | 1012.6 |
| 20260507051010 | 16 | 129 | 0.0 | 0.0 | 0.00 | 0.00 | 0.00 | 75 | 1012.7 |
| 20260507050509 | 16 | 129 | 0.0 | 0.0 | 0.00 | 0.00 | 0.00 | 75 | 1012.6 |
| 20260507050009 | 16 | 129 | 0.0 | 0.0 | 0.00 | 0.00 | 0.00 | 75 | 1012.6 |
| 20260507045509 | 16 | 129 | 0.0 | 0.0 | 0.00 | 0.00 | 0.00 | 75 | 1012.5 |
| 20260507045009 | 16 | 129 | 0.0 | 0.0 | 0.00 | 0.00 | 0.00 | 75 | 1012.4 |
| 20260507044508 | 16 | 129 | 0.0 | 0.0 | 0.00 | 0.00 | 0.00 | 75 | 1012.2 |
| 20260507044008 | 16 | 129 | 0.0 | 0.0 | 0.00 | 0.00 | 0.00 | 75 | 1012.2 |
| 20260507043508 | 16 | 129 | 0.0 | 0.0 | 0.00 | 0.00 | 0.00 | 75 | 1012.1 |
| 20260507043008 | 16 | 129 | 0.0 | 0.0 | 0.00 | 0.00 | 0.00 | 75 | 1012.1 |
| 20260507042507 | 16 | 129 | 0.0 | 0.0 | 0.00 | 0.00 | 0.00 | 75 | 1012.1 |
| 20260507042007 | 16 | 129 | 0.0 | 0.0 | 0.00 | 0.00 | 0.00 | 75 | 1012.2 |
| 20260507041507 | 16 | 129 | 0.0 | 0.0 | 0.00 | 0.00 | 0.00 | 75 | 1012.1 |
| 20260507041007 | 16 | 129 | 0.0 | 0.0 | 0.00 | 0.00 | 0.00 | 75 | 1012.1 |
| 20260507040507 | 16 | 124 | 0.0 | 0.0 | 0.00 | 0.00 | 0.00 | 75 | 1012.0 |
| 20260507040006 | 16 | 105 | 0.0 | 0.0 | 0.00 | 0.00 | 0.00 | 75 | 1011.9 |
| 20260507035506 | 16 | 102 | 0.0 | 0.0 | 0.00 | 0.00 | 0.00 | 75 | 1011.9 |
| 20260507035006 | 16 | 101 | 0.0 | 0.0 | 0.00 | 0.00 | 0.00 | 75 | 1011.8 |
| 20260507034506 | 16 | 116 | 0.0 | 0.0 | 0.00 | 0.00 | 0.00 | 75 | 1011.9 |
| 20260507034005 | 16 | 115 | 0.0 | 0.0 | 0.00 | 0.00 | 0.00 | 75 | 1011.9 |
| 20260507033505 | 16 | 115 | 0.0 | 0.0 | 0.00 | 0.00 | 0.00 | 76 | 1011.9 |
| 20260507033005 | 16 | 129 | 0.0 | 0.0 | 0.00 | 0.00 | 0.00 | 76 | 1011.8 |
| 20260507032505 | 16 | 129 | 0.0 | 0.0 | 0.00 | 0.00 | 0.00 | 76 | 1011.8 |
| 20260507032004 | 16 | 129 | 0.0 | 0.0 | 0.00 | 0.00 | 0.00 | 76 | 1011.8 |
| 20260507031736 | 16 | 129 | 0.0 | 0.0 | 0.00 | 0.00 | 0.00 | 76 | 1011.8 |
| 20260507031504 | 16 | 129 | 0.0 | 0.0 | 0.00 | 0.00 | 0.00 | 76 | 1011.8 |
| 20260507031004 | 16 | 130 | 0.0 | 0.0 | 0.00 | 0.00 | 0.00 | 76 | 1011.9 |
| 20260507030504 | 16 | 330 | 0.0 | 0.0 | 0.00 | 0.00 | 0.00 | 76 | 1011.8 |
| 20260507030004 | 16 | 330 | 0.0 | 0.0 | 0.00 | 0.00 | 0.00 | 75 | 1011.8 |
| 20260507025503 | 16 | 330 | 0.0 | 0.0 | 0.00 | 0.00 | 0.00 | 75 | 1011.8 |
| 20260507025003 | 16 | 330 | 0.0 | 0.0 | 0.00 | 0.00 | 0.00 | 75 | 1011.8 |
| 20260507024734 | 16 | 330 | 0.0 | 0.0 | 0.00 | 0.00 | 0.00 | 75 | 1011.8 |
| 20260507024503 | 16 | 330 | 0.0 | 0.0 | 0.00 | 0.00 | 0.00 | 75 | 1011.8 |
| 20260507024003 | 16 | 330 | 0.0 | 0.0 | 0.00 | 0.00 | 0.00 | 75 | 1011.8 |
| 20260507023502 | 16 | 330 | 0.0 | 0.0 | 0.00 | 0.00 | 0.00 | 75 | 1011.6 |
| 20260507023002 | 16 | 330 | 0.0 | 0.0 | 0.00 | 0.00 | 0.00 | 75 | 1011.6 |
| 20260507022502 | 16 | 330 | 0.0 | 0.0 | 0.00 | 0.00 | 0.00 | 75 | 1011.7 |
| 20260507022002 | 16 | 330 | 0.0 | 0.0 | 0.00 | 0.00 | 0.00 | 75 | 1011.8 |
| 20260507021501 | 16 | 330 | 0.0 | 0.0 | 0.00 | 0.00 | 0.00 | 75 | 1011.7 |
| 20260507021218 | 16 | 330 | 0.0 | 0.0 | 0.00 | 0.00 | 0.00 | 75 | 1011.8 |
| 20260507021001 | 16 | 330 | 0.0 | 0.0 | 0.00 | 0.00 | 0.00 | 75 | 1011.8 |
| 20260507020501 | 16 | 330 | 0.0 | 0.0 | 0.00 | 0.00 | 0.00 | 75 | 1011.8 |
| 20260507020001 | 16 | 330 | 0.0 | 0.0 | 0.00 | 0.00 | 0.00 | 75 | 1011.8 |
| 20260507015501 | 16 | 330 | 0.0 | 0.0 | 0.00 | 0.00 | 0.00 | 75 | 1011.7 |
| 20260507015000 | 16 | 330 | 0.0 | 0.0 | 0.00 | 0.00 | 0.00 | 75 | 1011.7 |
| 20260507014501 | 16 | 330 | 0.0 | 0.0 | 0.00 | 0.00 | 0.00 | 75 | 1011.7 |
| 20260507014000 | 17 | 330 | 0.0 | 0.0 | 0.00 | 0.00 | 0.00 | 75 | 1011.7 |
| 20260507013500 | 17 | 330 | 0.0 | 0.0 | 0.00 | 0.00 | 0.00 | 75 | 1011.7 |
| 20260507012959 | 17 | 330 | 0.0 | 0.0 | 0.00 | 0.00 | 0.00 | 75 | 1011.7 |
| 20260507012459 | 17 | 329 | 0.0 | 0.0 | 0.00 | 0.00 | 0.00 | 75 | 1011.7 |
| 20260507011959 | 17 | 329 | 0.0 | 0.0 | 0.00 | 0.00 | 0.00 | 75 | 1011.7 |
| 20260507011459 | 17 | 329 | 0.0 | 0.0 | 0.00 | 0.00 | 0.00 | 75 | 1011.7 |
| 20260507010959 | 17 | 329 | 0.0 | 0.0 | 0.00 | 0.00 | 0.00 | 74 | 1011.7 |
| 20260507010458 | 17 | 329 | 0.0 | 0.0 | 0.00 | 0.00 | 0.00 | 74 | 1011.7 |
| 20260507005958 | 17 | 328 | 0.0 | 0.0 | 0.00 | 0.00 | 0.00 | 74 | 1011.8 |
| 20260507005458 | 17 | 325 | 0.0 | 0.0 | 0.00 | 0.00 | 0.00 | 74 | 1011.7 |
| 20260507004958 | 17 | 33 | 0.0 | 0.0 | 0.00 | 0.00 | 0.00 | 74 | 1011.8 |
| 20260507004457 | 17 | 33 | 0.0 | 0.0 | 0.00 | 0.00 | 0.00 | 73 | 1011.8 |
| 20260507003957 | 17 | 33 | 0.0 | 0.0 | 0.00 | 0.00 | 0.00 | 73 | 1011.8 |
| 20260507003457 | 17 | 33 | 0.0 | 0.0 | 0.00 | 0.00 | 0.00 | 73 | 1011.7 |
| 20260507002957 | 17 | 280 | 0.0 | 0.0 | 0.00 | 0.00 | 0.00 | 72 | 1011.8 |
| 20260507002456 | 17 | 281 | 0.0 | 0.0 | 0.00 | 0.00 | 0.00 | 71 | 1011.8 |
| 20260507001956 | 17 | 280 | 0.0 | 0.0 | 0.00 | 0.00 | 0.00 | 71 | 1011.8 |
| 20260507001456 | 18 | 280 | 0.0 | 0.0 | 0.00 | 0.00 | 0.00 | 71 | 1011.8 |
| 20260507000956 | 18 | 280 | 0.0 | 0.0 | 0.00 | 0.00 | 0.00 | 70 | 1011.9 |
| 20260507000455 | 18 | 281 | 0.0 | 0.0 | 0.00 | 0.00 | 0.00 | 70 | 1011.9 |
| 20260506235955 | 18 | 281 | 0.0 | 0.0 | 0.00 | 0.00 | 0.00 | 69 | 1011.9 |
| 20260506235455 | 18 | 280 | 0.0 | 0.0 | 0.00 | 0.00 | 0.00 | 68 | 1011.9 |
| 20260506234955 | 18 | 237 | 0.0 | 0.0 | 0.00 | 0.00 | 0.00 | 68 | 1011.8 |
| 20260506234455 | 18 | 237 | 0.0 | 0.0 | 0.00 | 0.00 | 0.00 | 67 | 1011.7 |
| 20260506233954 | 18 | 144 | 0.0 | 0.0 | 0.00 | 0.00 | 0.00 | 67 | 1011.7 |
| 20260506233454 | 18 | 143 | 0.0 | 0.0 | 0.00 | 0.00 | 0.00 | 67 | 1011.7 |
| 20260506232954 | 18 | 187 | 0.0 | 0.0 | 0.00 | 0.00 | 0.00 | 67 | 1011.7 |
| 20260506232454 | 18 | 223 | 4.8 | 0.0 | 0.00 | 0.00 | 0.00 | 66 | 1011.7 |
| 20260506231953 | 19 | 245 | 0.0 | 0.0 | 0.00 | 0.00 | 0.00 | 65 | 1011.7 |
| 20260506230953 | 19 | 166 | 0.0 | 0.0 | 0.00 | 0.00 | 0.00 | 64 | 1011.5 |
| 20260506230453 | 19 | 184 | 3.2 | 0.0 | 0.00 | 0.00 | 0.00 | 64 | 1011.5 |
| 20260506225952 | 19 | 139 | 9.7 | 0.0 | 0.00 | 0.00 | 0.00 | 64 | 1011.6 |
| 20260506225452 | 19 | 187 | 11.3 | 0.0 | 0.00 | 0.00 | 0.00 | 65 | 1011.5 |
| 20260506224952 | 19 | 133 | 3.2 | 0.0 | 0.00 | 0.00 | 0.00 | 65 | 1011.5 |
| 20260506224452 | 19 | 157 | 3.2 | 0.0 | 0.00 | 0.00 | 0.00 | 66 | 1011.5 |
| 20260506223952 | 18 | 150 | 4.8 | 0.0 | 0.00 | 0.00 | 0.00 | 66 | 1011.5 |
| 20260506223451 | 18 | 155 | 3.2 | 0.0 | 0.00 | 0.00 | 0.00 | 67 | 1011.4 |
| 20260506222951 | 18 | 140 | 8.0 | 0.0 | 0.00 | 0.00 | 0.00 | 68 | 1011.5 |
| 20260506222451 | 18 | 152 | 8.0 | 0.0 | 0.00 | 0.00 | 0.00 | 69 | 1011.6 |
| 20260506221951 | 18 | 141 | 3.2 | 0.0 | 0.00 | 0.00 | 0.00 | 70 | 1011.6 |
| 20260506221451 | 18 | 145 | 4.8 | 0.0 | 0.00 | 0.00 | 0.00 | 70 | 1011.7 |
| 20260506220950 | 18 | 150 | 0.0 | 0.0 | 0.00 | 0.00 | 0.00 | 71 | 1011.7 |
| 20260506220450 | 18 | 139 | 0.0 | 0.0 | 0.00 | 0.00 | 0.00 | 71 | 1011.7 |
| 20260506215950 | 18 | 139 | 0.0 | 0.0 | 0.00 | 0.00 | 0.00 | 71 | 1011.7 |
| 20260506215450 | 18 | 139 | 0.0 | 0.0 | 0.00 | 0.00 | 0.00 | 71 | 1011.8 |
| 20260506214949 | 18 | 139 | 0.0 | 0.0 | 0.00 | 0.00 | 0.00 | 71 | 1011.7 |
| 20260506214449 | 18 | 143 | 0.0 | 0.0 | 0.00 | 0.00 | 0.00 | 71 | 1011.8 |
| 20260506213949 | 18 | 143 | 0.0 | 0.0 | 0.00 | 0.00 | 0.00 | 71 | 1011.9 |
| 20260506213449 | 18 | 129 | 0.0 | 0.0 | 0.00 | 0.00 | 0.00 | 72 | 1011.8 |
| 20260506212948 | 18 | 109 | 0.0 | 0.0 | 0.00 | 0.00 | 0.00 | 72 | 1011.8 |
| 20260506212448 | 18 | 104 | 0.0 | 0.0 | 0.00 | 0.00 | 0.00 | 73 | 1011.7 |
| 20260506211948 | 18 | 92 | 0.0 | 0.0 | 0.00 | 0.00 | 0.00 | 73 | 1011.7 |
| 20260506211448 | 18 | 46 | 0.0 | 0.0 | 0.00 | 0.00 | 0.00 | 73 | 1011.8 |
| 20260506210948 | 18 | 46 | 0.0 | 0.0 | 0.00 | 0.00 | 0.00 | 73 | 1011.8 |
| 20260506210447 | 18 | 45 | 0.0 | 0.0 | 0.00 | 0.00 | 0.00 | 73 | 1011.8 |
| 20260506205947 | 18 | 46 | 0.0 | 0.0 | 0.00 | 0.00 | 0.00 | 73 | 1011.8 |
| 20260506205447 | 18 | 46 | 0.0 | 0.0 | 0.00 | 0.00 | 0.00 | 73 | 1011.8 |
| 20260506204947 | 18 | 45 | 0.0 | 0.0 | 0.00 | 0.00 | 0.00 | 73 | 1011.8 |
| 20260506204446 | 18 | 45 | 0.0 | 0.0 | 0.00 | 0.00 | 0.00 | 73 | 1011.8 |
| 20260506203946 | 18 | 45 | 0.0 | 0.0 | 0.00 | 0.00 | 0.00 | 73 | 1011.7 |
| 20260506202946 | 18 | 45 | 0.0 | 0.0 | 0.00 | 0.00 | 0.00 | 73 | 1011.7 |
| 20260506202445 | 18 | 33 | 0.0 | 0.0 | 0.00 | 0.00 | 0.00 | 73 | 1011.5 |
| 20260506201945 | 18 | 354 | 0.0 | 0.0 | 0.00 | 0.00 | 0.00 | 73 | 1011.5 |
| 20260506201445 | 18 | 346 | 0.0 | 0.0 | 0.00 | 0.00 | 0.00 | 73 | 1011.5 |
| 20260506200945 | 18 | 346 | 0.0 | 0.0 | 0.00 | 0.00 | 0.00 | 73 | 1011.5 |
| 20260506200445 | 18 | 346 | 0.0 | 0.0 | 0.00 | 0.00 | 0.00 | 73 | 1011.6 |
| 20260506195944 | 18 | 346 | 0.0 | 0.0 | 0.00 | 0.00 | 0.00 | 73 | 1011.6 |
| 20260506195444 | 18 | 346 | 0.0 | 0.0 | 0.00 | 0.00 | 0.00 | 73 | 1011.5 |
| 20260506194944 | 18 | 343 | 0.0 | 0.0 | 0.00 | 0.00 | 0.00 | 72 | 1011.5 |
| 20260506194444 | 18 | 341 | 0.0 | 0.0 | 0.00 | 0.00 | 0.00 | 72 | 1011.4 |
| 20260506193943 | 18 | 343 | 0.0 | 0.0 | 0.00 | 0.00 | 0.00 | 72 | 1011.4 |
| 20260506193443 | 18 | 343 | 0.0 | 0.0 | 0.00 | 0.00 | 0.00 | 72 | 1011.3 |
| 20260506192943 | 18 | 343 | 0.0 | 0.0 | 0.00 | 0.00 | 0.00 | 72 | 1011.3 |
| 20260506192443 | 18 | 343 | 0.0 | 0.0 | 0.00 | 0.00 | 0.00 | 72 | 1011.3 |
| 20260506191942 | 18 | 343 | 0.0 | 0.0 | 0.00 | 0.00 | 0.00 | 72 | 1011.1 |
| 20260506191442 | 18 | 339 | 0.0 | 0.0 | 0.00 | 0.00 | 0.00 | 71 | 1011.1 |
| 20260506190942 | 18 | 337 | 0.0 | 0.0 | 0.00 | 0.00 | 0.00 | 71 | 1011.0 |
| 20260506190442 | 18 | 339 | 0.0 | 0.0 | 0.00 | 0.00 | 0.00 | 71 | 1010.9 |
| 20260506185941 | 18 | 308 | 0.0 | 0.0 | 0.00 | 0.00 | 0.00 | 70 | 1010.8 |
| 20260506185441 | 18 | 291 | 0.0 | 0.0 | 0.00 | 0.00 | 0.00 | 70 | 1010.8 |
| 20260506184941 | 18 | 303 | 0.0 | 0.0 | 0.00 | 0.00 | 0.00 | 70 | 1010.7 |
| 20260506184441 | 18 | 282 | 0.0 | 0.0 | 0.00 | 0.00 | 0.00 | 70 | 1010.7 |
| 20260506183941 | 18 | 285 | 0.0 | 0.0 | 0.00 | 0.00 | 0.00 | 69 | 1010.6 |
| 20260506183440 | 18 | 284 | 8.0 | 0.0 | 0.00 | 0.00 | 0.00 | 69 | 1010.5 |
| 20260506182940 | 19 | 266 | 4.8 | 0.0 | 0.00 | 0.00 | 0.00 | 69 | 1010.4 |
| 20260506182440 | 20 | 252 | 0.0 | 0.0 | 0.00 | 0.00 | 0.00 | 67 | 1010.3 |
| 20260506181940 | 20 | 251 | 0.0 | 0.0 | 0.00 | 0.00 | 0.00 | 66 | 1010.2 |
| 20260506181439 | 20 | 254 | 0.0 | 0.0 | 0.00 | 0.00 | 0.00 | 65 | 1010.1 |
| 20260506180939 | 21 | 237 | 0.0 | 0.0 | 0.00 | 0.00 | 0.00 | 63 | 1010.1 |
| 20260506180439 | 21 | 148 | 0.0 | 0.0 | 0.00 | 0.00 | 0.00 | 62 | 1010.0 |
| 20260506175939 | 21 | 158 | 4.8 | 0.0 | 0.00 | 0.00 | 0.00 | 62 | 1009.8 |
| 20260506174938 | 21 | 135 | 4.8 | 0.0 | 0.00 | 0.00 | 0.00 | 61 | 1009.8 |
| 20260506174438 | 21 | 144 | 1.6 | 0.0 | 0.00 | 0.00 | 0.00 | 61 | 1009.8 |
| 20260506173938 | 21 | 148 | 6.4 | 0.0 | 0.00 | 0.00 | 0.00 | 61 | 1009.7 |
| 20260506173437 | 21 | 136 | 12.9 | 0.0 | 0.00 | 0.00 | 0.00 | 60 | 1009.7 |
| 20260506172937 | 21 | 144 | 3.2 | 0.0 | 0.00 | 0.00 | 0.00 | 60 | 1009.6 |
| 20260506172437 | 21 | 131 | 3.2 | 0.0 | 0.00 | 0.00 | 0.00 | 60 | 1009.6 |
| 20260506171937 | 21 | 149 | 6.4 | 0.0 | 0.00 | 0.00 | 0.00 | 59 | 1009.6 |
| 20260506171436 | 21 | 138 | 14.5 | 0.0 | 0.00 | 0.00 | 0.00 | 59 | 1009.5 |
| 20260506170936 | 21 | 135 | 16.1 | 0.0 | 0.00 | 0.00 | 0.00 | 59 | 1009.4 |
| 20260506170436 | 21 | 157 | 4.8 | 0.0 | 0.00 | 0.00 | 0.00 | 59 | 1009.4 |
| 20260506165936 | 21 | 148 | 4.8 | 0.0 | 0.00 | 0.00 | 0.00 | 58 | 1009.4 |
| 20260506165436 | 21 | 144 | 14.5 | 0.0 | 0.00 | 0.00 | 0.00 | 58 | 1009.4 |
| 20260506164935 | 22 | 129 | 12.9 | 0.0 | 0.00 | 0.00 | 0.00 | 57 | 1009.3 |
| 20260506164506 | 22 | 160 | 11.3 | 0.0 | 0.00 | 0.00 | 0.00 | 57 | 1009.4 |
| 20260506164435 | 22 | 160 | 11.3 | 0.0 | 0.00 | 0.00 | 0.00 | 57 | 1009.4 |
| 20260506163935 | 22 | 151 | 9.7 | 0.0 | 0.00 | 0.00 | 0.00 | 57 | 1009.5 |
| 20260506163435 | 22 | 145 | 12.9 | 0.0 | 0.00 | 0.00 | 0.00 | 56 | 1009.4 |
| 20260506162934 | 22 | 150 | 14.5 | 0.0 | 0.00 | 0.00 | 0.00 | 56 | 1009.5 |
| 20260506162434 | 22 | 136 | 14.5 | 0.0 | 0.00 | 0.00 | 0.00 | 56 | 1009.5 |
| 20260506161934 | 22 | 130 | 11.3 | 0.0 | 0.00 | 0.00 | 0.00 | 56 | 1009.5 |
| 20260506161434 | 22 | 138 | 16.1 | 0.0 | 0.00 | 0.00 | 0.00 | 56 | 1009.5 |
| 20260506160933 | 22 | 143 | 12.9 | 0.0 | 0.00 | 0.00 | 0.00 | 56 | 1009.6 |
| 20260506160433 | 22 | 147 | 8.0 | 0.0 | 0.00 | 0.00 | 0.00 | 56 | 1009.6 |
| 20260506155933 | 22 | 131 | 14.5 | 0.0 | 0.00 | 0.00 | 0.00 | 55 | 1009.5 |
| 20260506155433 | 22 | 133 | 12.9 | 0.0 | 0.00 | 0.00 | 0.00 | 56 | 1009.6 |
| 20260506154932 | 22 | 146 | 19.3 | 0.0 | 0.00 | 0.00 | 0.00 | 55 | 1009.6 |
| 20260506154432 | 22 | 116 | 12.9 | 0.0 | 0.00 | 0.00 | 0.00 | 55 | 1009.5 |
| 20260506153932 | 22 | 135 | 16.1 | 0.0 | 0.00 | 0.00 | 0.00 | 54 | 1009.5 |
| 20260506153432 | 23 | 139 | 19.3 | 0.0 | 0.00 | 0.00 | 0.00 | 53 | 1009.4 |
| 20260506152932 | 23 | 152 | 11.3 | 0.0 | 0.00 | 0.00 | 0.00 | 54 | 1009.4 |
| 20260506152431 | 23 | 162 | 11.3 | 0.0 | 0.00 | 0.00 | 0.00 | 56 | 1009.4 |
| 20260506151931 | 23 | 147 | 3.2 | 0.0 | 0.00 | 0.00 | 0.00 | 56 | 1009.3 |
| 20260506150931 | 22 | 148 | 8.0 | 0.0 | 0.00 | 0.00 | 0.00 | 57 | 1009.4 |
| 20260506150430 | 22 | 166 | 8.0 | 0.0 | 0.00 | 0.00 | 0.00 | 56 | 1009.4 |
| 20260506145930 | 22 | 145 | 4.8 | 0.0 | 0.00 | 0.00 | 0.00 | 56 | 1009.4 |
| 20260506145430 | 22 | 166 | 11.3 | 0.0 | 0.00 | 0.00 | 0.00 | 56 | 1009.3 |
| 20260506144930 | 22 | 142 | 9.7 | 0.0 | 0.00 | 0.00 | 0.00 | 57 | 1009.3 |
| 20260506144430 | 22 | 131 | 12.9 | 0.0 | 0.00 | 0.00 | 0.00 | 56 | 1009.3 |
| 20260506143929 | 22 | 142 | 14.5 | 0.0 | 0.00 | 0.00 | 0.00 | 56 | 1009.3 |
| 20260506143429 | 22 | 145 | 16.1 | 0.0 | 0.00 | 0.00 | 0.00 | 55 | 1009.2 |
| 20260506142929 | 22 | 150 | 19.3 | 0.0 | 0.00 | 0.91 | 0.00 | 54 | 1009.3 |
| 20260506142429 | 23 | 153 | 16.1 | 0.0 | 0.00 | 0.91 | 0.00 | 54 | 1009.3 |
| 20260506141928 | 23 | 153 | 6.4 | 0.0 | 0.00 | 0.91 | 0.00 | 55 | 1009.2 |
| 20260506141428 | 22 | 149 | 12.9 | 0.0 | 0.00 | 0.91 | 0.00 | 54 | 1009.2 |
| 20260506140928 | 22 | 151 | 12.9 | 0.0 | 0.00 | 0.91 | 0.00 | 55 | 1009.4 |
| 20260506140428 | 22 | 176 | 14.5 | 0.0 | 0.00 | 0.91 | 0.00 | 54 | 1009.6 |
| 20260506135928 | 22 | 165 | 19.3 | 0.0 | 0.00 | 0.91 | 0.00 | 53 | 1009.6 |
| 20260506135427 | 22 | 147 | 22.5 | 0.0 | 0.00 | 0.91 | 0.00 | 54 | 1009.6 |
| 20260506134927 | 22 | 146 | 20.9 | 0.0 | 0.00 | 0.91 | 0.00 | 54 | 1009.8 |
| 20260506134427 | 22 | 145 | 3.2 | 0.0 | 0.00 | 0.91 | 0.00 | 55 | 1009.8 |
| 20260506133926 | 22 | 178 | 6.4 | 0.0 | 0.00 | 0.91 | 0.00 | 55 | 1009.8 |
| 20260506133426 | 22 | 144 | 12.9 | 0.0 | 0.00 | 0.91 | 0.00 | 54 | 1009.9 |
| 20260506132926 | 22 | 155 | 14.5 | 0.0 | 0.00 | 0.91 | 0.00 | 54 | 1010.0 |
| 20260506132426 | 22 | 149 | 11.3 | 0.0 | 0.00 | 0.91 | 0.00 | 53 | 1010.1 |
| 20260506131926 | 22 | 142 | 9.7 | 0.0 | 0.00 | 0.91 | 0.00 | 53 | 1010.2 |
| 20260506131425 | 22 | 147 | 9.7 | 0.0 | 0.00 | 0.91 | 0.00 | 52 | 1010.2 |
| 20260506130925 | 22 | 148 | 3.2 | 0.0 | 0.00 | 0.91 | 0.00 | 52 | 1010.3 |
| 20260506130425 | 22 | 141 | 14.5 | 0.0 | 0.00 | 0.91 | 0.00 | 53 | 1010.3 |
| 20260506125925 | 22 | 145 | 8.0 | 0.0 | 0.00 | 0.91 | 0.00 | 53 | 1010.4 |
| 20260506125424 | 22 | 147 | 20.9 | 0.0 | 0.00 | 0.91 | 0.00 | 53 | 1010.4 |
| 20260506124924 | 22 | 138 | 30.6 | 0.0 | 0.00 | 0.91 | 0.00 | 54 | 1010.5 |
| 20260506124424 | 22 | 145 | 16.1 | 0.0 | 0.00 | 0.91 | 0.00 | 54 | 1010.6 |
| 20260506123924 | 22 | 168 | 17.7 | 0.0 | 0.00 | 0.91 | 0.00 | 53 | 1010.7 |
| 20260506122922 | 22 | 160 | 14.5 | 0.0 | 0.00 | 0.91 | 0.00 | 55 | 1010.5 |
| 20260506122422 | 22 | 138 | 16.1 | 0.0 | 0.00 | 0.91 | 0.00 | 56 | 1010.5 |
| 20260506121922 | 22 | 149 | 12.9 | 0.0 | 0.00 | 0.91 | 0.00 | 55 | 1010.5 |
| 20260506121422 | 22 | 149 | 12.9 | 0.0 | 0.00 | 0.91 | 0.00 | 55 | 1010.5 |
| 20260506120921 | 22 | 152 | 12.9 | 0.0 | 0.00 | 0.91 | 0.00 | 55 | 1010.6 |
| 20260506120421 | 22 | 168 | 19.3 | 0.0 | 0.00 | 0.91 | 0.00 | 55 | 1010.6 |
| 20260506120005 | 22 | 154 | 0.0 | 0.0 | 0.00 | 0.91 | 0.00 | 55 | 1010.6 |
| 20260506115921 | 22 | 154 | 0.0 | 0.0 | 0.00 | 0.91 | 0.00 | 55 | 1010.6 |
| 20260506115421 | 22 | 147 | 4.8 | 0.0 | 0.00 | 0.91 | 0.00 | 56 | 1010.5 |
| 20260506114920 | 22 | 137 | 8.0 | 0.0 | 0.00 | 0.91 | 0.00 | 58 | 1010.6 |
| 20260506114420 | 22 | 142 | 14.5 | 0.0 | 0.00 | 0.91 | 0.00 | 57 | 1010.6 |
| 20260506113920 | 22 | 143 | 6.4 | 0.0 | 0.00 | 0.91 | 0.00 | 58 | 1010.7 |
| 20260506113420 | 22 | 133 | 3.2 | 0.0 | 0.00 | 0.91 | 0.00 | 59 | 1010.7 |
| 20260506112920 | 21 | 149 | 0.0 | 0.0 | 0.00 | 0.91 | 0.00 | 60 | 1010.8 |
| 20260506112419 | 21 | 133 | 16.1 | 0.0 | 0.00 | 0.91 | 0.00 | 60 | 1010.9 |
| 20260506111919 | 21 | 137 | 11.3 | 0.0 | 0.00 | 0.91 | 0.00 | 62 | 1010.9 |
| 20260506111419 | 21 | 131 | 11.3 | 0.0 | 0.00 | 0.91 | 0.00 | 62 | 1011.0 |
| 20260506110919 | 21 | 135 | 12.9 | 0.0 | 0.00 | 0.91 | 0.00 | 62 | 1011.2 |
| 20260506110418 | 21 | 137 | 6.4 | 0.0 | 0.00 | 0.91 | 0.00 | 63 | 1011.1 |
| 20260506105918 | 21 | 166 | 12.9 | 0.0 | 0.00 | 0.91 | 0.00 | 63 | 1011.1 |
| 20260506105418 | 21 | 147 | 1.6 | 0.0 | 0.00 | 0.91 | 0.00 | 64 | 1011.2 |
| 20260506104918 | 21 | 154 | 6.4 | 0.0 | 0.00 | 0.91 | 0.00 | 63 | 1011.1 |
| 20260506104418 | 20 | 170 | 3.2 | 0.0 | 0.00 | 0.91 | 0.00 | 64 | 1011.2 |
| 20260506103916 | 20 | 135 | 19.3 | 0.0 | 0.00 | 0.91 | 0.00 | 63 | 1011.1 |
| 20260506103416 | 20 | 141 | 8.0 | 0.0 | 0.00 | 0.91 | 0.00 | 63 | 1011.1 |
| 20260506102916 | 20 | 161 | 12.9 | 0.0 | 0.00 | 0.91 | 0.00 | 63 | 1011.2 |
| 20260506102414 | 20 | 141 | 20.9 | 0.0 | 0.00 | 0.91 | 0.00 | 63 | 1011.2 |
| 20260506101914 | 20 | 147 | 14.5 | 0.0 | 0.00 | 0.91 | 0.00 | 64 | 1011.3 |
| 20260506101414 | 20 | 154 | 14.5 | 0.0 | 0.00 | 0.91 | 0.00 | 63 | 1011.2 |
| 20260506100913 | 20 | 147 | 14.5 | 0.0 | 0.00 | 0.91 | 0.00 | 63 | 1011.2 |
| 20260506100410 | 20 | 138 | 14.5 | 0.0 | 0.00 | 0.91 | 0.00 | 63 | 1011.2 |
| 20260506095910 | 20 | 139 | 22.5 | 0.0 | 0.00 | 0.91 | 0.00 | 63 | 1011.2 |
| 20260506095410 | 20 | 152 | 14.5 | 0.0 | 0.00 | 0.91 | 0.00 | 63 | 1011.2 |
| 20260506094909 | 20 | 140 | 22.5 | 0.0 | 0.00 | 0.91 | 0.00 | 62 | 1011.2 |
| 20260506094408 | 20 | 120 | 17.7 | 0.0 | 0.00 | 0.91 | 0.00 | 62 | 1011.3 |
| 20260506093908 | 20 | 125 | 11.3 | 0.0 | 0.00 | 0.91 | 0.00 | 62 | 1011.3 |
| 20260506093408 | 20 | 145 | 19.3 | 0.0 | 0.00 | 0.91 | 0.00 | 63 | 1011.3 |
| 20260506092908 | 20 | 132 | 9.7 | 0.0 | 0.00 | 0.91 | 0.00 | 63 | 1011.3 |
| 20260506092407 | 20 | 135 | 1.6 | 0.0 | 0.00 | 0.91 | 0.00 | 63 | 1011.4 |
| 20260506091907 | 20 | 128 | 19.3 | 0.0 | 0.00 | 0.91 | 0.00 | 64 | 1011.4 |
| 20260506091407 | 20 | 131 | 14.5 | 0.0 | 0.00 | 0.91 | 0.00 | 64 | 1011.3 |
| 20260506090907 | 20 | 135 | 17.7 | 0.0 | 0.00 | 0.91 | 0.00 | 64 | 1011.3 |
| 20260506090407 | 20 | 125 | 17.7 | 0.0 | 0.00 | 0.91 | 0.00 | 64 | 1011.4 |
| 20260506085906 | 20 | 133 | 9.7 | 0.0 | 0.00 | 0.91 | 0.00 | 64 | 1011.4 |
| 20260506085406 | 20 | 133 | 19.3 | 0.0 | 0.00 | 0.91 | 0.00 | 64 | 1011.3 |
| 20260506084906 | 19 | 123 | 11.3 | 0.0 | 0.00 | 0.91 | 0.00 | 64 | 1011.3 |
| 20260506084406 | 19 | 127 | 16.1 | 0.0 | 0.00 | 0.91 | 0.00 | 64 | 1011.3 |
| 20260506083905 | 19 | 146 | 16.1 | 0.0 | 0.00 | 0.91 | 0.00 | 65 | 1011.3 |